Location: Holbach
(51.5399°N, 10.6036°E)
Time: 03:38:25
(UTC+00:00)

Lacrosse 4 Rocket - Pass Details

Date: 18 September 2020
Orbit: 543 x 615 km, 68.0° (Epoch: 22 October)

Event Time Altitude Azimuth Distance (km) Brightness Sun altitude
Rises 20:57:59 0° 325° (NW) 2,718 6.1 -30.0°
Reaches altitude 10° 21:00:11 10° 327° (NNW) 1,823 4.9 -30.2°
Enters shadow 21:02:09 27° 333° (NNW) 1,070 3.3 -30.4°
